Time,TemperatureF,DewpointF,PressureIn,WindDirection,WindDirectionDegrees,WindSpeedMPH,WindSpeedGustMPH,Humidity,HourlyPrecipIn,Conditions,Clouds,dailyrainin,SoftwareType,DateUTC
2013-04-13 00:02:00,57.4,53.2,29.88,West,277,0.0,0.0,86,0.00,,,0.00,Wunderground v.1.15,2013-04-13 07:02:00,
2013-04-13 00:07:00,57.6,53.4,29.88,West,277,0.0,0.0,86,0.00,,,0.00,Wunderground v.1.15,2013-04-13 07:07:00,
2013-04-13 00:17:00,57.9,54.4,29.88,SSE,163,1.0,1.0,88,0.00,,,0.00,Wunderground v.1.15,2013-04-13 07:17:00,
2013-04-13 00:22:00,57.9,54.4,29.89,SSE,151,2.0,3.0,88,0.00,,,0.00,Wunderground v.1.15,2013-04-13 07:22:00,
2013-04-13 00:27:00,57.8,54.3,29.89,SE,136,2.0,3.0,88,0.00,,,0.00,Wunderground v.1.15,2013-04-13 07:27:00,
2013-04-13 00:37:00,57.6,54.1,29.89,SSE,150,2.0,4.0,88,0.00,,,0.00,Wunderground v.1.15,2013-04-13 07:37:00,
2013-04-13 00:47:00,57.5,54.0,29.89,SE,126,2.0,2.0,88,0.00,,,0.00,Wunderground v.1.15,2013-04-13 07:47:00,
2013-04-13 00:52:00,57.4,53.9,29.89,ESE,121,2.0,3.0,88,0.00,,,0.00,Wunderground v.1.15,2013-04-13 07:52:00,
2013-04-13 00:57:00,57.4,53.9,29.89,SE,134,2.0,3.0,88,0.00,,,0.00,Wunderground v.1.15,2013-04-13 07:57:00,
2013-04-13 01:03:00,57.3,53.8,29.89,SSE,161,2.0,2.0,88,0.00,,,0.00,Wunderground v.1.15,2013-04-13 08:03:00,
2013-04-13 01:12:00,57.2,53.7,29.88,SSE,157,3.0,5.0,88,0.00,,,0.00,Wunderground v.1.15,2013-04-13 08:12:00,
2013-04-13 01:22:00,57.1,53.6,29.88,SE,136,2.0,2.0,88,0.00,,,0.00,Wunderground v.1.15,2013-04-13 08:22:00,
2013-04-13 01:32:00,57.0,53.5,29.88,SE,128,2.0,2.0,88,0.00,,,0.00,Wunderground v.1.15,2013-04-13 08:32:00,
2013-04-13 01:37:00,56.8,53.3,29.88,SE,128,2.0,2.0,88,0.00,,,0.00,Wunderground v.1.15,2013-04-13 08:37:00,
2013-04-13 01:47:00,56.7,53.5,29.88,South,175,2.0,3.0,89,0.00,,,0.00,Wunderground v.1.15,2013-04-13 08:47:00,
2013-04-13 01:57:00,56.6,53.4,29.88,South,172,2.0,3.0,89,0.00,,,0.00,Wunderground v.1.15,2013-04-13 08:57:00,
2013-04-13 02:07:00,56.5,53.6,29.88,SSE,158,2.0,3.0,90,0.00,,,0.00,Wunderground v.1.15,2013-04-13 09:07:00,
2013-04-13 02:17:00,56.4,53.5,29.88,SSE,163,2.0,4.0,90,0.00,,,0.00,Wunderground v.1.15,2013-04-13 09:17:00,
2013-04-13 02:27:00,56.4,53.5,29.87,South,177,2.0,3.0,90,0.00,,,0.00,Wunderground v.1.15,2013-04-13 09:27:00,
2013-04-13 02:32:00,56.5,53.6,29.87,South,184,2.0,2.0,90,0.00,,,0.00,Wunderground v.1.15,2013-04-13 09:32:00,
2013-04-13 02:37:00,56.5,53.6,29.87,South,184,2.0,2.0,90,0.00,,,0.00,Wunderground v.1.15,2013-04-13 09:37:00,
2013-04-13 02:47:00,56.5,53.6,29.87,South,184,2.0,3.0,90,0.00,,,0.00,Wunderground v.1.15,2013-04-13 09:47:00,
2013-04-13 02:52:00,56.6,53.7,29.87,SSE,150,2.0,3.0,90,0.00,,,0.00,Wunderground v.1.15,2013-04-13 09:52:00,
2013-04-13 02:57:00,56.5,53.6,29.87,SSE,150,2.0,3.0,90,0.00,,,0.00,Wunderground v.1.15,2013-04-13 09:57:00,
2013-04-13 03:07:00,56.4,53.5,29.86,SSE,151,2.0,3.0,90,0.00,,,0.00,Wunderground v.1.15,2013-04-13 10:07:00,
2013-04-13 03:12:00,56.5,53.6,29.87,SSE,151,2.0,2.0,90,0.00,,,0.00,Wunderground v.1.15,2013-04-13 10:12:00,
2013-04-13 03:22:00,56.4,53.5,29.87,SSE,151,2.0,2.0,90,0.00,,,0.00,Wunderground v.1.15,2013-04-13 10:22:00,
2013-04-13 03:32:00,56.4,53.5,29.86,SSE,152,1.0,1.0,90,0.00,,,0.00,Wunderground v.1.15,2013-04-13 10:32:00,
2013-04-13 03:37:00,56.4,53.5,29.86,SSE,152,1.0,1.0,90,0.00,,,0.00,Wunderground v.1.15,2013-04-13 10:37:00,
2013-04-13 03:47:00,56.4,53.5,29.86,SSE,152,1.0,1.0,90,0.00,,,0.00,Wunderground v.1.15,2013-04-13 10:47:00,
2013-04-13 03:52:00,56.4,53.5,29.86,SSE,152,1.0,1.0,90,0.00,,,0.00,Wunderground v.1.15,2013-04-13 10:52:00,
2013-04-13 03:57:00,56.5,53.6,29.85,SSE,152,1.0,1.0,90,0.00,,,0.00,Wunderground v.1.15,2013-04-13 10:57:00,
2013-04-13 04:02:00,56.5,53.6,29.86,SSE,152,1.0,1.0,90,0.00,,,0.00,Wunderground v.1.15,2013-04-13 11:02:00,
2013-04-13 04:12:00,56.6,53.7,29.86,SSE,152,1.0,1.0,90,0.00,,,0.00,Wunderground v.1.15,2013-04-13 11:12:00,
2013-04-13 04:22:00,56.7,53.8,29.86,SSE,152,1.0,1.0,90,0.00,,,0.00,Wunderground v.1.15,2013-04-13 11:22:00,
2013-04-13 04:32:00,56.8,53.6,29.86,SE,128,2.0,2.0,89,0.00,,,0.00,Wunderground v.1.15,2013-04-13 11:32:00,
2013-04-13 04:37:00,56.8,53.6,29.86,NNE,28,1.0,4.0,89,0.00,,,0.00,Wunderground v.1.15,2013-04-13 11:37:00,
2013-04-13 04:47:00,56.9,54.0,29.86,NE,34,2.0,2.0,90,0.00,,,0.00,Wunderground v.1.15,2013-04-13 11:47:00,
2013-04-13 04:57:00,56.9,54.0,29.85,East,81,1.0,1.0,90,0.00,,,0.00,Wunderground v.1.15,2013-04-13 11:57:00,
2013-04-13 05:07:00,56.9,54.0,29.85,ENE,76,2.0,2.0,90,0.00,,,0.00,Wunderground v.1.15,2013-04-13 12:07:00,
2013-04-13 05:17:00,56.9,54.0,29.86,ENE,76,0.0,1.0,90,0.00,,,0.00,Wunderground v.1.15,2013-04-13 12:17:00,
2013-04-13 05:22:00,56.9,54.0,29.85,ENE,76,0.0,0.0,90,0.00,,,0.00,Wunderground v.1.15,2013-04-13 12:22:00,
2013-04-13 05:27:00,56.8,53.9,29.85,ENE,76,0.0,1.0,90,0.00,,,0.00,Wunderground v.1.15,2013-04-13 12:27:00,
2013-04-13 05:32:00,56.9,54.0,29.85,ENE,76,1.0,1.0,90,0.00,,,0.00,Wunderground v.1.15,2013-04-13 12:32:00,
2013-04-13 05:42:00,56.9,54.0,29.85,ENE,76,0.0,0.0,90,0.00,,,0.00,Wunderground v.1.15,2013-04-13 12:42:00,
2013-04-13 05:47:00,56.9,54.0,29.85,ENE,76,0.0,0.0,90,0.00,,,0.00,Wunderground v.1.15,2013-04-13 12:47:00,
2013-04-13 05:52:00,57.0,54.1,29.85,ENE,76,0.0,0.0,90,0.00,,,0.00,Wunderground v.1.15,2013-04-13 12:52:00,
2013-04-13 05:58:00,57.0,54.1,29.85,SSW,197,1.0,3.0,90,0.00,,,0.00,Wunderground v.1.15,2013-04-13 12:58:00,
2013-04-13 06:07:00,56.9,54.0,29.85,SSW,193,2.0,3.0,90,0.00,,,0.00,Wunderground v.1.15,2013-04-13 13:07:00,
2013-04-13 06:17:00,57.0,54.1,29.85,SSW,193,2.0,2.0,90,0.00,,,0.00,Wunderground v.1.15,2013-04-13 13:17:00,
2013-04-13 06:22:00,57.0,54.1,29.85,SSE,161,2.0,2.0,90,0.00,,,0.00,Wunderground v.1.15,2013-04-13 13:22:00,
2013-04-13 06:42:00,56.9,54.0,29.86,SSE,162,3.0,3.0,90,0.00,,,0.00,Wunderground v.1.15,2013-04-13 13:42:00,
2013-04-13 06:52:00,56.9,53.7,29.86,SSE,162,1.0,1.0,89,0.00,,,0.00,Wunderground v.1.15,2013-04-13 13:52:00,
2013-04-13 06:57:00,57.0,53.8,29.86,SSE,162,2.0,2.0,89,0.00,,,0.00,Wunderground v.1.15,2013-04-13 13:57:00,
2013-04-13 07:07:00,57.0,53.8,29.86,SSE,162,1.0,1.0,89,0.00,,,0.00,Wunderground v.1.15,2013-04-13 14:07:00,
2013-04-13 07:18:00,57.1,53.9,29.87,SSE,162,1.0,2.0,89,0.00,,,0.00,Wunderground v.1.15,2013-04-13 14:18:00,
2013-04-13 07:27:00,57.2,54.0,29.87,SSE,162,1.0,1.0,89,0.00,,,0.00,Wunderground v.1.15,2013-04-13 14:27:00,
2013-04-13 07:42:00,57.4,54.2,29.87,SSE,162,1.0,3.0,89,0.00,,,0.00,Wunderground v.1.15,2013-04-13 14:42:00,
2013-04-13 07:47:00,57.3,54.4,29.87,SSE,163,2.0,3.0,90,0.00,,,0.00,Wunderground v.1.15,2013-04-13 14:47:00,
2013-04-13 07:53:00,57.2,54.3,29.87,SSE,163,2.0,2.0,90,0.00,,,0.00,Wunderground v.1.15,2013-04-13 14:53:00,
2013-04-13 08:02:00,57.1,54.2,29.87,South,180,2.0,4.0,90,0.00,,,0.00,Wunderground v.1.15,2013-04-13 15:02:00,
2013-04-13 08:07:00,57.1,54.5,29.87,SSW,202,3.0,4.0,91,0.00,,,0.00,Wunderground v.1.15,2013-04-13 15:07:00,
2013-04-13 08:17:00,57.1,54.2,29.88,SSW,202,3.0,3.0,90,0.00,,,0.00,Wunderground v.1.15,2013-04-13 15:17:00,
2013-04-13 08:22:00,57.2,54.3,29.88,SSW,202,2.0,2.0,90,0.00,,,0.00,Wunderground v.1.15,2013-04-13 15:22:00,
2013-04-13 08:27:00,57.3,54.4,29.88,SSW,202,2.0,2.0,90,0.00,,,0.00,Wunderground v.1.15,2013-04-13 15:27:00,
2013-04-13 08:37:00,57.5,54.3,29.88,SSE,163,2.0,2.0,89,0.00,,,0.00,Wunderground v.1.15,2013-04-13 15:37:00,
2013-04-13 08:42:00,57.6,54.4,29.88,SSE,163,1.0,1.0,89,0.00,,,0.00,Wunderground v.1.15,2013-04-13 15:42:00,
2013-04-13 08:52:00,57.6,54.7,29.88,South,169,2.0,2.0,90,0.00,,,0.00,Wunderground v.1.15,2013-04-13 15:52:00,
2013-04-13 08:57:00,57.6,54.4,29.88,SSW,213,2.0,5.0,89,0.00,,,0.00,Wunderground v.1.15,2013-04-13 15:57:00,
2013-04-13 09:02:00,57.5,54.6,29.89,South,180,2.0,4.0,90,0.00,,,0.00,Wunderground v.1.15,2013-04-13 16:02:00,
2013-04-13 09:07:00,57.5,54.6,29.89,South,185,3.0,4.0,90,0.00,,,0.00,Wunderground v.1.15,2013-04-13 16:07:00,
2013-04-13 09:12:00,57.5,54.6,29.89,South,185,3.0,3.0,90,0.00,,,0.00,Wunderground v.1.15,2013-04-13 16:12:00,
2013-04-13 09:17:00,57.5,54.6,29.89,SW,217,3.0,3.0,90,0.00,,,0.00,Wunderground v.1.15,2013-04-13 16:17:00,
2013-04-13 09:27:00,57.6,54.7,29.89,SSW,192,2.0,3.0,90,0.00,,,0.00,Wunderground v.1.15,2013-04-13 16:27:00,
2013-04-13 09:32:00,57.7,54.8,29.89,South,180,2.0,4.0,90,0.00,,,0.00,Wunderground v.1.15,2013-04-13 16:32:00,
2013-04-13 09:42:00,57.8,54.9,29.89,SSW,205,3.0,5.0,90,0.00,,,0.00,Wunderground v.1.15,2013-04-13 16:42:00,
2013-04-13 09:52:00,57.8,54.9,29.89,SSW,201,2.0,2.0,90,0.00,,,0.00,Wunderground v.1.15,2013-04-13 16:52:00,
2013-04-13 09:57:00,57.9,54.7,29.89,South,183,1.0,2.0,89,0.00,,,0.00,Wunderground v.1.15,2013-04-13 16:57:00,
2013-04-13 10:03:00,58.1,54.9,29.89,South,183,2.0,2.0,89,0.00,,,0.00,Wunderground v.1.15,2013-04-13 17:03:00,
2013-04-13 10:12:00,58.4,54.9,29.89,SSW,200,2.0,2.0,88,0.00,,,0.00,Wunderground v.1.15,2013-04-13 17:12:00,
2013-04-13 10:17:00,58.5,54.6,29.89,South,180,2.0,2.0,87,0.00,,,0.00,Wunderground v.1.15,2013-04-13 17:17:00,
2013-04-13 10:22:00,58.6,55.1,29.89,South,180,1.0,1.0,88,0.00,,,0.00,Wunderground v.1.15,2013-04-13 17:22:00,
2013-04-13 10:42:00,58.9,54.7,29.90,SSW,202,2.0,2.0,86,0.00,,,0.00,Wunderground v.1.15,2013-04-13 17:42:00,
2013-04-13 10:52:00,58.9,54.7,29.91,South,184,2.0,3.0,86,0.00,,,0.00,Wunderground v.1.15,2013-04-13 17:52:00,
2013-04-13 10:57:00,59.1,54.9,29.91,South,184,2.0,3.0,86,0.00,,,0.00,Wunderground v.1.15,2013-04-13 17:57:00,
2013-04-13 11:07:00,59.3,54.8,29.91,South,182,1.0,1.0,85,0.00,,,0.00,Wunderground v.1.15,2013-04-13 18:07:00,
2013-04-13 11:12:00,59.4,54.9,29.90,South,177,2.0,4.0,85,0.00,,,0.00,Wunderground v.1.15,2013-04-13 18:12:00,
2013-04-13 11:17:00,59.6,54.8,29.90,South,177,2.0,4.0,84,0.00,,,0.00,Wunderground v.1.15,2013-04-13 18:17:00,
2013-04-13 12:27:00,59.9,54.7,29.90,WSW,244,2.0,2.0,83,0.00,,,0.00,Wunderground v.1.15,2013-04-13 19:27:00,
2013-04-13 12:32:00,60.0,54.8,29.90,WSW,238,2.0,2.0,83,0.00,,,0.00,Wunderground v.1.15,2013-04-13 19:32:00,
2013-04-13 12:42:00,60.4,54.5,29.90,SW,218,2.0,2.0,81,0.00,,,0.00,Wunderground v.1.15,2013-04-13 19:42:00,
2013-04-13 12:52:00,60.7,54.8,29.89,SW,220,2.0,4.0,81,0.00,,,0.00,Wunderground v.1.15,2013-04-13 19:52:00,
2013-04-13 12:57:00,60.9,55.0,29.89,SW,220,2.0,2.0,81,0.00,,,0.00,Wunderground v.1.15,2013-04-13 19:57:00,
2013-04-13 13:02:00,61.3,55.1,29.89,SSW,194,1.0,3.0,80,0.00,,,0.00,Wunderground v.1.15,2013-04-13 20:02:00,
2013-04-13 13:07:00,61.7,55.1,29.89,SSW,194,1.0,3.0,79,0.00,,,0.00,Wunderground v.1.15,2013-04-13 20:07:00,
2013-04-13 13:12:00,61.7,55.1,29.89,WSW,240,2.0,5.0,79,0.00,,,0.00,Wunderground v.1.15,2013-04-13 20:12:00,
2013-04-13 13:17:00,61.5,54.9,29.89,SSW,199,3.0,5.0,79,0.00,,,0.00,Wunderground v.1.15,2013-04-13 20:17:00,
2013-04-13 13:27:00,61.4,55.2,29.88,South,188,3.0,3.0,80,0.00,,,0.00,Wunderground v.1.15,2013-04-13 20:27:00,
2013-04-13 13:37:00,61.4,55.2,29.88,South,183,3.0,4.0,80,0.00,,,0.00,Wunderground v.1.15,2013-04-13 20:37:00,
2013-04-13 13:47:00,61.7,55.1,29.87,SSE,165,3.0,5.0,79,0.00,,,0.00,Wunderground v.1.15,2013-04-13 20:47:00,
2013-04-13 13:57:00,62.0,55.1,29.87,SE,138,3.0,4.0,78,0.00,,,0.00,Wunderground v.1.15,2013-04-13 20:57:00,
2013-04-13 14:07:00,62.2,54.9,29.87,SSE,150,2.0,2.0,77,0.00,,,0.00,Wunderground v.1.15,2013-04-13 21:07:00,
2013-04-13 14:12:00,62.5,55.2,29.87,SSE,150,2.0,2.0,77,0.00,,,0.00,Wunderground v.1.15,2013-04-13 21:12:00,
2013-04-13 14:22:00,62.9,55.2,29.86,South,169,3.0,3.0,76,0.00,,,0.00,Wunderground v.1.15,2013-04-13 21:22:00,
2013-04-13 14:32:00,62.9,55.6,29.87,South,170,3.0,3.0,77,0.00,,,0.00,Wunderground v.1.15,2013-04-13 21:32:00,
2013-04-13 14:37:00,62.7,55.7,29.86,South,184,4.0,4.0,78,0.00,,,0.00,Wunderground v.1.15,2013-04-13 21:37:00,
2013-04-13 14:47:00,62.2,55.6,29.86,SW,225,4.0,5.0,79,0.00,,,0.00,Wunderground v.1.15,2013-04-13 21:47:00,
2013-04-13 14:52:00,62.3,55.7,29.87,SW,235,3.0,3.0,79,0.00,,,0.00,Wunderground v.1.15,2013-04-13 21:52:00,
2013-04-13 15:02:00,62.1,55.5,29.86,South,184,3.0,4.0,79,0.00,,,0.00,Wunderground v.1.15,2013-04-13 22:02:00,
2013-04-13 15:07:00,62.0,55.4,29.86,SSW,209,4.0,6.0,79,0.00,,,0.00,Wunderground v.1.15,2013-04-13 22:07:00,
2013-04-13 15:17:00,62.0,55.4,29.86,SSW,209,4.0,4.0,79,0.00,,,0.00,Wunderground v.1.15,2013-04-13 22:17:00,
2013-04-13 15:27:00,62.3,55.7,29.85,SW,219,4.0,4.0,79,0.00,,,0.00,Wunderground v.1.15,2013-04-13 22:27:00,
2013-04-13 15:32:00,62.3,55.7,29.85,SSW,200,5.0,7.0,79,0.00,,,0.00,Wunderground v.1.15,2013-04-13 22:32:00,
2013-04-13 15:42:00,61.9,55.3,29.85,SW,220,5.0,7.0,79,0.00,,,0.00,Wunderground v.1.15,2013-04-13 22:42:00,
2013-04-13 15:52:00,62.0,55.4,29.85,SSW,209,3.0,3.0,79,0.00,,,0.00,Wunderground v.1.15,2013-04-13 22:52:00,
2013-04-13 15:57:00,62.0,55.4,29.85,SSW,209,3.0,4.0,79,0.00,,,0.00,Wunderground v.1.15,2013-04-13 22:57:00,
2013-04-13 16:02:00,61.7,55.5,29.85,South,171,4.0,4.0,80,0.00,,,0.00,Wunderground v.1.15,2013-04-13 23:02:00,
2013-04-13 16:12:00,61.6,55.0,29.85,SSE,165,3.0,3.0,79,0.00,,,0.00,Wunderground v.1.15,2013-04-13 23:12:00,
2013-04-13 16:17:00,61.4,54.8,29.84,South,175,4.0,4.0,79,0.00,,,0.00,Wunderground v.1.15,2013-04-13 23:17:00,
2013-04-13 16:27:00,61.5,54.6,29.84,South,173,4.0,4.0,78,0.00,,,0.00,Wunderground v.1.15,2013-04-13 23:27:00,
2013-04-13 16:37:00,61.5,54.9,29.84,SW,231,2.0,5.0,79,0.00,,,0.00,Wunderground v.1.15,2013-04-13 23:37:00,
2013-04-13 16:42:00,61.4,54.8,29.84,South,180,3.0,3.0,79,0.00,,,0.00,Wunderground v.1.15,2013-04-13 23:42:00,
2013-04-13 16:52:00,61.3,54.7,29.83,SSW,207,3.0,3.0,79,0.00,,,0.00,Wunderground v.1.15,2013-04-13 23:52:00,
2013-04-13 17:02:00,61.2,54.6,29.83,SSE,164,2.0,2.0,79,0.00,,,0.00,Wunderground v.1.15,2013-04-14 00:02:00,
2013-04-13 17:07:00,61.3,55.1,29.83,SSE,155,3.0,4.0,80,0.00,,,0.00,Wunderground v.1.15,2013-04-14 00:07:00,
2013-04-13 17:12:00,61.4,54.8,29.83,South,186,3.0,3.0,79,0.00,,,0.00,Wunderground v.1.15,2013-04-14 00:12:00,
2013-04-13 17:22:00,61.3,54.7,29.83,South,172,3.0,4.0,79,0.00,,,0.00,Wunderground v.1.15,2013-04-14 00:22:00,
2013-04-13 17:32:00,61.1,54.5,29.83,SSW,205,2.0,3.0,79,0.00,,,0.00,Wunderground v.1.15,2013-04-14 00:32:00,
2013-04-13 17:37:00,61.0,54.4,29.83,South,175,3.0,4.0,79,0.00,,,0.00,Wunderground v.1.15,2013-04-14 00:37:00,
2013-04-13 17:47:00,60.9,54.3,29.83,SSE,150,3.0,7.0,79,0.00,,,0.00,Wunderground v.1.15,2013-04-14 00:47:00,
2013-04-13 17:52:00,60.9,54.3,29.83,SSE,160,3.0,3.0,79,0.00,,,0.00,Wunderground v.1.15,2013-04-14 00:52:00,
2013-04-13 17:57:00,60.8,54.2,29.83,SSW,203,3.0,4.0,79,0.00,,,0.00,Wunderground v.1.15,2013-04-14 00:57:00,
2013-04-13 18:07:00,60.8,54.2,29.83,South,175,3.0,3.0,79,0.00,,,0.00,Wunderground v.1.15,2013-04-14 01:07:00,
2013-04-13 18:12:00,60.6,54.4,29.83,SSW,201,3.0,5.0,80,0.00,,,0.00,Wunderground v.1.15,2013-04-14 01:12:00,
2013-04-13 18:17:00,60.4,54.2,29.83,South,175,4.0,6.0,80,0.00,,,0.00,Wunderground v.1.15,2013-04-14 01:17:00,
2013-04-13 18:27:00,60.1,54.2,29.83,SSW,197,4.0,7.0,81,0.00,,,0.00,Wunderground v.1.15,2013-04-14 01:27:00,
2013-04-13 18:32:00,60.0,54.2,29.83,South,173,4.0,4.0,81,0.00,,,0.00,Wunderground v.1.15,2013-04-14 01:32:00,
2013-04-13 18:37:00,59.9,54.1,29.83,South,169,3.0,6.0,81,0.00,,,0.00,Wunderground v.1.15,2013-04-14 01:37:00,
2013-04-13 18:42:00,59.8,54.0,29.83,SSE,165,4.0,4.0,81,0.00,,,0.00,Wunderground v.1.15,2013-04-14 01:42:00,
2013-04-13 18:47:00,59.7,53.9,29.83,South,170,3.0,4.0,81,0.00,,,0.00,Wunderground v.1.15,2013-04-14 01:47:00,
2013-04-13 18:57:00,59.4,53.9,29.83,South,183,4.0,5.0,82,0.00,,,0.00,Wunderground v.1.15,2013-04-14 01:57:00,
2013-04-13 19:02:00,59.3,53.8,29.83,South,186,4.0,4.0,82,0.00,,,0.00,Wunderground v.1.15,2013-04-14 02:02:00,
2013-04-13 19:07:00,59.2,53.7,29.83,South,186,4.0,4.0,82,0.00,,,0.00,Wunderground v.1.15,2013-04-14 02:07:00,
2013-04-13 19:17:00,59.1,53.6,29.84,SSE,157,3.0,4.0,82,0.00,,,0.00,Wunderground v.1.15,2013-04-14 02:17:00,
2013-04-13 19:22:00,59.0,53.8,29.84,South,175,3.0,5.0,83,0.00,,,0.00,Wunderground v.1.15,2013-04-14 02:22:00,
2013-04-13 19:32:00,59.1,53.9,29.84,SSW,207,3.0,3.0,83,0.00,,,0.00,Wunderground v.1.15,2013-04-14 02:32:00,
2013-04-13 19:37:00,59.0,53.8,29.84,South,171,4.0,5.0,83,0.00,,,0.00,Wunderground v.1.15,2013-04-14 02:37:00,
2013-04-13 19:42:00,58.9,53.7,29.84,South,190,4.0,4.0,83,0.00,,,0.00,Wunderground v.1.15,2013-04-14 02:42:00,
2013-04-13 19:47:00,58.8,53.6,29.84,South,178,4.0,4.0,83,0.00,,,0.00,Wunderground v.1.15,2013-04-14 02:47:00,
2013-04-13 19:57:00,58.6,53.5,29.84,South,184,3.0,4.0,83,0.00,,,0.00,Wunderground v.1.15,2013-04-14 02:57:00,
2013-04-13 20:02:00,58.7,53.5,29.84,SW,214,3.0,3.0,83,0.00,,,0.00,Wunderground v.1.15,2013-04-14 03:02:00,
2013-04-13 20:12:00,58.5,53.4,29.85,South,182,4.0,4.0,83,0.00,,,0.00,Wunderground v.1.15,2013-04-14 03:12:00,
2013-04-13 20:17:00,58.5,53.4,29.85,SSW,193,3.0,4.0,83,0.00,,,0.00,Wunderground v.1.15,2013-04-14 03:17:00,
2013-04-13 20:27:00,58.4,53.3,29.85,SSE,150,4.0,5.0,83,0.00,,,0.00,Wunderground v.1.15,2013-04-14 03:27:00,
2013-04-13 20:32:00,58.3,53.5,29.85,SSW,197,3.0,3.0,84,0.00,,,0.00,Wunderground v.1.15,2013-04-14 03:32:00,
2013-04-13 20:37:00,58.3,53.5,29.85,South,172,3.0,3.0,84,0.00,,,0.00,Wunderground v.1.15,2013-04-14 03:37:00,
2013-04-13 20:47:00,58.2,53.4,29.86,South,187,4.0,5.0,84,0.00,,,0.00,Wunderground v.1.15,2013-04-14 03:47:00,
2013-04-13 20:57:00,58.0,52.9,29.86,SSW,202,4.0,4.0,83,0.00,,,0.00,Wunderground v.1.15,2013-04-14 03:57:00,
2013-04-13 21:02:00,58.0,52.9,29.86,SSW,198,3.0,4.0,83,0.00,,,0.00,Wunderground v.1.15,2013-04-14 04:02:00,
2013-04-13 21:07:00,58.0,52.9,29.87,South,190,4.0,4.0,83,0.00,,,0.00,Wunderground v.1.15,2013-04-14 04:07:00,
2013-04-13 21:17:00,57.9,52.8,29.87,SSE,153,3.0,5.0,83,0.00,,,0.00,Wunderground v.1.15,2013-04-14 04:17:00,
2013-04-13 21:22:00,57.8,53.0,29.87,SSE,168,4.0,4.0,84,0.00,,,0.00,Wunderground v.1.15,2013-04-14 04:22:00,
2013-04-13 21:27:00,57.7,52.9,29.87,SSE,151,4.0,4.0,84,0.00,,,0.00,Wunderground v.1.15,2013-04-14 04:27:00,
2013-04-13 21:37:00,57.7,52.9,29.87,SSW,199,3.0,4.0,84,0.00,,,0.00,Wunderground v.1.15,2013-04-14 04:37:00,
2013-04-13 21:42:00,57.7,52.9,29.88,SSW,207,2.0,2.0,84,0.00,,,0.00,Wunderground v.1.15,2013-04-14 04:42:00,
2013-04-13 21:47:00,57.8,52.7,29.88,SSE,158,2.0,3.0,83,0.00,,,0.00,Wunderground v.1.15,2013-04-14 04:47:00,
2013-04-13 21:57:00,57.8,52.7,29.88,SE,135,2.0,3.0,83,0.00,,,0.00,Wunderground v.1.15,2013-04-14 04:57:00,
2013-04-13 22:02:00,57.7,52.6,29.88,SSE,150,3.0,3.0,83,0.00,,,0.00,Wunderground v.1.15,2013-04-14 05:02:00,
2013-04-13 22:12:00,57.5,52.4,29.88,SSE,159,2.0,2.0,83,0.00,,,0.00,Wunderground v.1.15,2013-04-14 05:12:00,
2013-04-13 22:22:00,57.3,52.5,29.88,SSE,151,3.0,3.0,84,0.00,,,0.00,Wunderground v.1.15,2013-04-14 05:22:00,
2013-04-13 22:32:00,57.2,52.4,29.88,ESE,113,3.0,3.0,84,0.00,,,0.00,Wunderground v.1.15,2013-04-14 05:32:00,
2013-04-13 22:37:00,57.1,52.0,29.88,SSE,165,3.0,6.0,83,0.00,,,0.00,Wunderground v.1.15,2013-04-14 05:37:00,
2013-04-13 22:47:00,56.8,52.0,29.88,SSE,155,4.0,4.0,84,0.00,,,0.00,Wunderground v.1.15,2013-04-14 05:47:00,
2013-04-13 22:52:00,56.7,51.9,29.88,SE,142,3.0,4.0,84,0.00,,,0.00,Wunderground v.1.15,2013-04-14 05:52:00,
2013-04-13 23:02:00,56.4,51.6,29.88,SE,136,3.0,4.0,84,0.00,,,0.00,Wunderground v.1.15,2013-04-14 06:02:00,
2013-04-13 23:07:00,56.4,51.6,29.88,SSW,195,3.0,4.0,84,0.00,,,0.00,Wunderground v.1.15,2013-04-14 06:07:00,
2013-04-13 23:12:00,56.4,51.6,29.88,South,182,3.0,6.0,84,0.00,,,0.00,Wunderground v.1.15,2013-04-14 06:12:00,
2013-04-13 23:22:00,56.3,51.5,29.88,SSE,165,3.0,5.0,84,0.00,,,0.00,Wunderground v.1.15,2013-04-14 06:22:00,
2013-04-13 23:27:00,56.3,51.5,29.87,South,171,3.0,5.0,84,0.00,,,0.00,Wunderground v.1.15,2013-04-14 06:27:00,
2013-04-13 23:37:00,56.2,51.4,29.87,SSE,158,2.0,3.0,84,0.00,,,0.00,Wunderground v.1.15,2013-04-14 06:37:00,
2013-04-13 23:42:00,56.2,51.4,29.87,South,175,2.0,2.0,84,0.00,,,0.00,Wunderground v.1.15,2013-04-14 06:42:00,
2013-04-13 23:47:00,56.2,51.4,29.87,SE,146,3.0,3.0,84,0.00,,,0.00,Wunderground v.1.15,2013-04-14 06:47:00,
2013-04-13 23:57:00,55.9,51.8,29.87,SE,138,3.0,4.0,86,0.00,,,0.00,Wunderground v.1.15,2013-04-14 06:57:00,